Location: Byszew
(52.1813°N, 19.2693°E)
Time: 00:17:14
(UTC+00:00)

DMSP B5D2-2 - Pass Details

Date: 03 March 2021
Orbit: 789 x 807 km, 98.3° (Epoch: 11 April)

Event Time Altitude Azimuth Distance (km) Brightness Sun altitude
Rises 18:05:06 0° 16° (NNE) 3,315 7.2 -15.9°
Reaches altitude 10° 18:07:28 10° 20° (NNE) 2,378 6.4 -16.3°
Maximum altitude 18:12:41 62° 102° (ESE) 893 4.0 -17.0°
Drops below altitude 10° 18:17:50 10° 183° (S) 2,351 6.4 -17.8°
Sets 18:20:10 0° 186° (S) 3,275 7.2 -18.2°
